Home   Weather   Rotterdam   Past weeks
Flag for Netherlands

Past Weather in Rotterdam, Netherlands — Yesterday and Last 2 Weeks

Now
43 °F

Quite cool.


Feels Like: 36 °F
Forecast: 47 / 29 °F
Wind: 12 mph from Northeast

Location: Rotterdam Zestienhoven Airport

Current Time: Mar 31, 2020 at 12:59:57 pm

Latest Report: Mar 31, 2020 at 11:55 am


Visibility: N/A

Pressure: 30.48 "Hg

Humidity: 57%

Dew Point: 28 °F

Location of RotterdamLocation

Past Weather in Rotterdam — Graph

°F

Rotterdam Temperature Yesterday

Maximum temperature yesterday: 48 °F (at 2:55 pm)
Minimum temperature yesterday: 28 °F (at 2:55 am)
Average temperature yesterday: 39 °F

High & Low Weather Summary for the Past Weeks

 TemperatureHumidityPressure
High55 °F (Mar 18, 11:55 am)100% (Mar 16, 9:55 pm)30.60 "Hg (Mar 16, 9:55 pm)
Low28 °F (Mar 24, 6:25 am)22% (Mar 25, 3:55 pm)30.09 "Hg (Mar 16, 10:25 am)
Average44 °F63%30.33 "Hg
* Reported Mar 16 10:25 am — Mar 31 11:55 am, Rotterdam. Weather by CustomWeather, © 2020

Note: Actual official high and low records may vary slightly from our data, if they occured in-between our weather recording intervals... More about our weather records

Rotterdam Weather History for the Previous 24 Hours

Scroll right to see more
 ConditionsComfort  
Time TempWeatherWind HumidityBarometerVisibility
11:55 am
Tue, Mar 31
43 °FQuite cool.12 mph57%30.48 "HgN/A
11:25 am43 °FQuite cool.10 mph61%30.48 "HgN/A
10:55 am41 °FQuite cool.13 mph66%30.48 "HgN/A
10:25 am39 °FChilly.13 mph65%30.48 "HgN/A
9:55 am37 °FChilly.13 mph70%30.48 "HgN/A
9:25 am37 °FChilly.12 mph70%30.48 "HgN/A
8:55 am36 °FChilly.12 mph81%30.48 "HgN/A
8:25 am34 °FChilly.9 mph87%30.48 "HgN/A
7:55 am34 °FChilly.7 mph87%30.45 "HgN/A
7:25 am34 °FChilly.9 mph87%30.45 "HgN/A
6:55 am34 °FChilly.7 mph93%30.45 "HgN/A
6:25 am34 °FChilly.7 mph93%30.42 "HgN/A
5:55 am34 °FChilly.6 mph93%30.42 "HgN/A
5:25 am36 °FChilly.5 mph93%30.42 "HgN/A
4:55 am34 °FChilly.5 mph93%30.42 "HgN/A
4:25 am36 °FChilly.5 mph93%30.42 "HgN/A
3:55 am37 °FPassing clouds.7 mph93%30.42 "HgN/A
3:25 am37 °FPassing clouds.6 mph87%30.39 "HgN/A
2:55 am37 °FPassing clouds.6 mph93%30.39 "HgN/A
2:25 am39 °FMostly cloudy.6 mph87%30.39 "HgN/A
1:55 am37 °FPassing clouds.5 mph93%30.39 "HgN/A
1:25 am37 °FPassing clouds.5 mph87%30.39 "HgN/A
12:55 am37 °FChilly.5 mph93%30.39 "HgN/A
12:25 am39 °FClear.6 mph87%30.39 "HgN/A
11:55 pm
Mon, Mar 30
39 °FClear.6 mph87%30.39 "HgN/A
11:25 pm39 °FPassing clouds.6 mph87%30.39 "HgN/A
10:55 pm41 °FPassing clouds.6 mph87%30.39 "HgN/A
10:25 pm41 °FPassing clouds.6 mph87%30.36 "HgN/A
9:55 pm41 °FQuite cool.7 mph87%30.36 "HgN/A
9:25 pm41 °FQuite cool.6 mph87%30.36 "HgN/A
8:55 pm43 °FPassing clouds.9 mph81%30.36 "HgN/A
8:25 pm43 °FQuite cool.9 mph81%30.36 "HgN/A
7:55 pm43 °FPassing clouds.8 mph87%30.36 "HgN/A
7:25 pm43 °FLots of rain. Broken clouds.13 mph81%30.36 "Hg5 mi
6:55 pm45 °FPartly sunny.13 mph76%30.36 "HgN/A
6:25 pm46 °FBroken clouds.13 mph71%30.36 "HgN/A
5:55 pm46 °FPartly sunny.13 mph66%30.36 "HgN/A
5:25 pm46 °FPartly sunny.14 mph71%30.36 "HgN/A
4:55 pm46 °FBroken clouds.12 mph66%30.39 "HgN/A
4:25 pm48 °FPassing clouds.15 mph62%30.39 "HgN/A
3:55 pm48 °FScattered clouds.14 mph62%30.39 "HgN/A
3:25 pm48 °FPassing clouds.13 mph62%30.39 "HgN/A
2:55 pm48 °FPartly sunny.12 mph66%30.42 "HgN/A
2:25 pm46 °FMore clouds than sun.10 mph66%30.42 "HgN/A
1:55 pm46 °FBroken clouds.13 mph76%30.42 "HgN/A
1:25 pm45 °FScattered clouds.1 mph87%30.42 "HgN/A
12:55 pm45 °FDrizzle. Mostly cloudy.7 mph76%30.45 "HgN/A
12:25 pm45 °FBroken clouds.7 mph76%30.45 "HgN/A
Weather by CustomWeather, © 2020

See weather overview

Advertising